This demonstration page uses our WeatherBlox Daily Observations layout. Learn more.

Left ArrowRight Arrow

34.74481, -87.66753

Hourly Observations for March 16, 2018

Temp ( °F °C ) Dew Point ( °F °C ) Humidity (%) Winds ( mph kmh ) Pressure ( in mb ) Visibility ( mi km ) Precip ( " mm )
12:53 am 00:53 Clear 51 10.6 30 -1.1 44 44 SW 3 6 29.96 1015 10 16 0.00 0.00
1:53 am 01:53 Clear 51 10.6 32 0 48 48 Calm 29.96 1015 10 16 0.00 0.00
2:53 am 02:53 Clear 51 10.6 33 0.6 50 50 Calm 29.96 1015 10 16 0.00 0.00
3:53 am 03:53 Clear 48 8.9 39 3.9 71 71 Calm 29.96 1015 10 16 0.00 0.00
4:53 am 04:53 Clear 46 7.8 39 3.9 77 77 Calm 29.98 1015 10 16 0.00 0.00
5:53 am 05:53 Clear 45 7.2 38 3.3 77 77 Calm 30.00 1016 10 16 0.00 0.00
6:53 am 06:53 Clear 43 6.1 36 2.2 76 76 Calm 30.02 1017 10 16 0.00 0.00
7:53 am 07:53 Sunny 45 7.2 38 3.3 77 77 SE 3 6 30.04 1017 10 16 0.00 0.00
8:53 am 08:53 Sunny 54 12.2 38 3.3 55 55 ESE 3 6 30.04 1017 10 16 0.00 0.00
9:53 am 09:53 Sunny 59 15 41 5 51 51 VRB 3 6 30.05 1018 10 16 0.00 0.00
10:53 am 10:53 Sunny 64 17.8 46 7.8 52 52 VRB 3 6 30.04 1017 10 16 0.00 0.00
11:53 am 11:53 Partly Cloudy 67 19.4 51 10.6 57 57 W 8 13 30.03 1017 10 16 0.00 0.00
12:53 pm 12:53 Mostly Sunny 68 20 51 10.6 55 55 SW 8 13 30.02 1017 10 16 0.00 0.00
1:53 pm 13:53 Mostly Sunny 69 20.6 52 11.1 55 55 SSW 10 17 30.00 1016 10 16 0.00 0.00
2:53 pm 14:53 Cloudy 65 18.3 52 11.1 63 63 SSW 9 15 29.99 1016 10 16 0.00 0.00
3:53 pm 15:53 Mostly Cloudy with Light Rain 65 18.3 52 11.1 63 63 S 10 17 29.98 1015 10 16 0.00 0.03
4:53 pm 16:53 Cloudy 66 18.9 52 11.1 61 61 S 9 15 29.97 1015 10 16 0.00 0.03
5:53 pm 17:53 Sunny 65 18.3 51 10.6 61 61 SSW 15 24 29.96 1015 10 16 0.00 0.00
6:53 pm 18:53 Partly Cloudy 63 17.2 52 11.1 68 68 SSW 13 20 29.97 1015 10 16 0.00 0.00
7:23 pm 19:23 Cloudy 62 16.7 52 11.1 70 70 S 9 15 29.94 1014 10 16 0.00 0.00
7:37 pm 19:37 Mostly Cloudy 61 16.1 53 11.7 75 75 SSE 12 19 29.94 1014 10 16 0.00 0.00
7:53 pm 19:53 Partly Cloudy 61 16.1 52 11.1 72 72 S 9 15 29.95 1014 10 16 0.00 0.00
8:13 pm 20:13 Mostly Cloudy 61 16.1 52 11.1 72 72 S 12 19 29.91 1013 10 16 0.00 0.00
8:53 pm 20:53 Cloudy 60 15.6 52 11.1 75 75 S 7 11 29.97 1015 10 16 0.00 0.00
9:53 pm 21:53 Cloudy 60 15.6 53 11.7 78 78 S 8 13 29.97 1015 10 16 0.00 0.00
10:53 pm 22:53 Cloudy 61 16.1 54 12.2 78 78 S 7 11 29.97 1015 10 16 0.00 0.00
11:53 pm 23:53 Cloudy 61 16.1 55 12.8 81 81 S 13 20 29.96 1015 10 16 0.00 0.00

Powered by AerisWeather